Location: Bemmer
(51.5498°N, 5.6249°E)
Time: 16:22:45
(UTC+00:00)

FALCON 9 DEB - Pass Details

Date: 03 March 2021
Orbit: 371 x 390 km, 53.0° (Epoch: 12 April)

Event Time Altitude Azimuth Distance (km) Brightness Sun altitude
Rises 18:26:59 0° 273° (W) 2,297 9.1 -11.0°
Reaches altitude 10° 18:29:04 10° 276° (W) 1,441 7.3 -11.3°
Maximum altitude 18:32:17 64° 359° (N) 442 3.1 -11.8°
Enters shadow 18:34:18 20° 78° (ENE) 972 4.3 -12.1°
